ONEWEB-0170

Last updated on Sun Apr 25 2021 00:02:03 GMT+0000 (Coordinated Universal Time)

1 48067U 21025AB 21114.58336806 -.01103578 00000-0 -54908-1 0 9997 2 48067 87.4174 339.3691 0010927 151.8901 224.1829 15.20738445 1789

Satellite not in orbit